Time,TemperatureF,DewpointF,PressureIn,WindDirection,WindDirectionDegrees,WindSpeedMPH,WindSpeedGustMPH,Humidity,HourlyPrecipIn,Conditions,Clouds,dailyrainin,SoftwareType,DateUTC
2013-02-01 00:03:00,48.0,30.0,30.17,NNW,345,2.0,3.0,49,0.00,,,0.00,Meteo,2013-02-01 05:03:00,
2013-02-01 00:04:00,48.0,30.0,30.17,NNW,346,1.0,3.0,49,0.00,,,0.00,Meteo,2013-02-01 05:04:00,
2013-02-01 00:05:00,48.0,30.0,30.17,NNW,346,1.0,3.0,49,0.00,,,0.00,Meteo,2013-02-01 05:05:00,
2013-02-01 00:08:00,48.0,30.0,30.17,NNW,345,1.0,3.0,50,0.00,,,0.00,Meteo,2013-02-01 05:08:00,
2013-02-01 00:14:00,47.0,29.0,30.17,NNW,344,1.0,2.0,50,0.00,,,0.00,Meteo,2013-02-01 05:14:00,
2013-02-01 00:19:00,47.0,30.0,30.17,NNW,344,2.0,3.0,51,0.00,,,0.00,Meteo,2013-02-01 05:19:00,
2013-02-01 00:24:00,47.0,30.0,30.17,NNW,346,2.0,3.0,51,0.00,,,0.00,Meteo,2013-02-01 05:24:00,
2013-02-01 00:30:00,47.0,29.0,30.18,NNW,338,3.0,6.0,50,0.00,,,0.00,Meteo,2013-02-01 05:30:00,
2013-02-01 00:36:00,47.0,30.0,30.18,NNW,330,2.0,3.0,51,0.00,,,0.00,Meteo,2013-02-01 05:36:00,
2013-02-01 00:41:00,47.0,30.0,30.18,NNW,348,3.0,5.0,51,0.00,,,0.00,Meteo,2013-02-01 05:41:00,
2013-02-01 00:46:00,47.0,29.0,30.17,NNW,346,2.0,3.0,50,0.00,,,0.00,Meteo,2013-02-01 05:46:00,
2013-02-01 00:51:00,47.0,30.0,30.17,North,352,2.0,4.0,51,0.00,,,0.00,Meteo,2013-02-01 05:51:00,
2013-02-01 00:56:00,47.0,30.0,30.17,NNW,347,1.0,6.0,51,0.00,,,0.00,Meteo,2013-02-01 05:56:00,
2013-02-01 01:01:00,47.0,30.0,30.18,North,354,2.0,4.0,51,0.00,,,0.00,Meteo,2013-02-01 06:01:00,
2013-02-01 01:06:00,47.0,30.0,30.18,NNW,342,3.0,5.0,52,0.00,,,0.00,Meteo,2013-02-01 06:06:00,
2013-02-01 01:11:00,47.0,31.0,30.18,NNW,346,2.0,3.0,54,0.00,,,0.00,Meteo,2013-02-01 06:11:00,
2013-02-01 01:16:00,47.0,31.0,30.18,NNW,346,1.0,3.0,54,0.00,,,0.00,Meteo,2013-02-01 06:16:00,
2013-02-01 01:21:00,46.0,31.0,30.18,North,354,2.0,3.0,56,0.00,,,0.00,Meteo,2013-02-01 06:21:00,
2013-02-01 01:26:00,46.0,31.0,30.18,NNW,347,2.0,3.0,56,0.00,,,0.00,Meteo,2013-02-01 06:26:00,
2013-02-01 01:32:00,46.0,32.0,30.17,NNW,348,2.0,3.0,57,0.00,,,0.00,Meteo,2013-02-01 06:32:00,
2013-02-01 01:37:00,46.0,32.0,30.17,NW,320,2.0,3.0,57,0.00,,,0.00,Meteo,2013-02-01 06:37:00,
2013-02-01 01:42:00,45.0,32.0,30.17,NNW,332,2.0,2.0,59,0.00,,,0.00,Meteo,2013-02-01 06:42:00,
2013-02-01 01:47:00,45.0,32.0,30.17,NNW,332,1.0,2.0,61,0.00,,,0.00,Meteo,2013-02-01 06:47:00,
2013-02-01 01:52:00,45.0,33.0,30.17,NNW,332,1.0,2.0,62,0.00,,,0.00,Meteo,2013-02-01 06:52:00,
2013-02-01 01:57:00,44.0,32.0,30.17,NNW,333,1.0,2.0,63,0.00,,,0.00,Meteo,2013-02-01 06:57:00,
2013-02-01 02:03:00,44.0,33.0,30.17,NNW,345,2.0,3.0,65,0.00,,,0.00,Meteo,2013-02-01 07:03:00,
2013-02-01 02:08:00,43.0,32.0,30.17,NNW,346,2.0,2.0,66,0.00,,,0.00,Meteo,2013-02-01 07:08:00,
2013-02-01 02:13:00,43.0,32.0,30.17,NNW,345,2.0,3.0,66,0.00,,,0.00,Meteo,2013-02-01 07:13:00,
2013-02-01 02:19:00,42.0,31.0,30.18,NNW,346,1.0,2.0,66,0.00,,,0.00,Meteo,2013-02-01 07:19:00,
2013-02-01 02:24:00,42.0,31.0,30.18,NNW,345,1.0,2.0,66,0.00,,,0.00,Meteo,2013-02-01 07:24:00,
2013-02-01 02:29:00,42.0,32.0,30.18,NNW,345,1.0,2.0,67,0.00,,,0.00,Meteo,2013-02-01 07:29:00,
2013-02-01 02:34:00,42.0,31.0,30.18,NNW,345,0.0,1.0,66,0.00,,,0.00,Meteo,2013-02-01 07:34:00,
2013-02-01 02:39:00,43.0,33.0,30.18,NNW,346,1.0,2.0,67,0.00,,,0.00,Meteo,2013-02-01 07:39:00,
2013-02-01 02:44:00,42.0,32.0,30.18,NNW,345,1.0,2.0,68,0.00,,,0.00,Meteo,2013-02-01 07:44:00,
2013-02-01 02:49:00,42.0,33.0,30.17,NNW,346,1.0,2.0,69,0.00,,,0.00,Meteo,2013-02-01 07:49:00,
2013-02-01 02:54:00,42.0,33.0,30.17,North,0,0.0,0.0,69,0.00,,,0.00,Meteo,2013-02-01 07:54:00,
2013-02-01 02:59:00,42.0,33.0,30.17,NNW,345,1.0,2.0,70,0.00,,,0.00,Meteo,2013-02-01 07:59:00,
2013-02-01 03:04:00,41.0,32.0,30.17,North,0,0.0,0.0,70,0.00,,,0.00,Meteo,2013-02-01 08:04:00,
2013-02-01 03:09:00,41.0,32.0,30.17,North,0,0.0,0.0,71,0.00,,,0.00,Meteo,2013-02-01 08:09:00,
2013-02-01 03:14:00,41.0,33.0,30.17,North,0,0.0,0.0,73,0.00,,,0.00,Meteo,2013-02-01 08:14:00,
2013-02-01 03:19:00,40.0,33.0,30.18,North,0,0.0,0.0,75,0.00,,,0.00,Meteo,2013-02-01 08:19:00,
2013-02-01 03:24:00,40.0,33.0,30.18,North,0,0.0,0.0,77,0.00,,,0.00,Meteo,2013-02-01 08:24:00,
2013-02-01 03:29:00,39.0,33.0,30.18,North,0,0.0,0.0,78,0.00,,,0.00,Meteo,2013-02-01 08:29:00,
2013-02-01 03:34:00,39.0,33.0,30.18,North,0,0.0,0.0,78,0.00,,,0.00,Meteo,2013-02-01 08:34:00,
2013-02-01 03:39:00,39.0,33.0,30.18,North,0,0.0,0.0,79,0.00,,,0.00,Meteo,2013-02-01 08:39:00,
2013-02-01 03:44:00,38.0,32.0,30.18,NNW,345,1.0,2.0,80,0.00,,,0.00,Meteo,2013-02-01 08:44:00,
2013-02-01 03:49:00,38.0,32.0,30.19,NNW,345,1.0,1.0,80,0.00,,,0.00,Meteo,2013-02-01 08:49:00,
2013-02-01 03:55:00,38.0,33.0,30.19,NNW,346,1.0,1.0,82,0.00,,,0.00,Meteo,2013-02-01 08:55:00,
2013-02-01 04:00:00,38.0,33.0,30.19,North,0,0.0,0.0,82,0.00,,,0.00,Meteo,2013-02-01 09:00:00,
2013-02-01 04:05:00,38.0,33.0,30.19,NNW,345,2.0,3.0,83,0.00,,,0.00,Meteo,2013-02-01 09:05:00,
2013-02-01 04:10:00,38.0,33.0,30.19,NNW,345,2.0,3.0,83,0.00,,,0.00,Meteo,2013-02-01 09:10:00,
2013-02-01 04:15:00,38.0,34.0,30.19,NNW,344,1.0,2.0,84,0.00,,,0.00,Meteo,2013-02-01 09:15:00,
2013-02-01 04:20:00,38.0,34.0,30.19,NNW,345,0.0,2.0,84,0.00,,,0.00,Meteo,2013-02-01 09:20:00,
2013-02-01 04:26:00,38.0,33.0,30.19,NNW,339,2.0,3.0,82,0.00,,,0.00,Meteo,2013-02-01 09:26:00,
2013-02-01 04:31:00,40.0,34.0,30.19,NNW,342,1.0,3.0,79,0.00,,,0.00,Meteo,2013-02-01 09:31:00,
2013-02-01 04:36:00,40.0,34.0,30.19,NNW,343,1.0,2.0,78,0.00,,,0.00,Meteo,2013-02-01 09:36:00,
2013-02-01 04:41:00,40.0,33.0,30.19,NNW,344,2.0,3.0,77,0.00,,,0.00,Meteo,2013-02-01 09:41:00,
2013-02-01 04:46:00,40.0,33.0,30.19,NNW,343,1.0,3.0,77,0.00,,,0.00,Meteo,2013-02-01 09:46:00,
2013-02-01 04:51:00,40.0,34.0,30.19,NNW,343,2.0,3.0,78,0.00,,,0.00,Meteo,2013-02-01 09:51:00,
2013-02-01 04:56:00,40.0,34.0,30.19,NNW,343,1.0,2.0,78,0.00,,,0.00,Meteo,2013-02-01 09:56:00,
2013-02-01 05:01:00,40.0,34.0,30.19,NNW,344,1.0,2.0,78,0.00,,,0.00,Meteo,2013-02-01 10:01:00,
2013-02-01 05:06:00,40.0,34.0,30.20,NNW,343,1.0,2.0,79,0.00,,,0.00,Meteo,2013-02-01 10:06:00,
2013-02-01 05:11:00,39.0,33.0,30.20,North,0,0.0,0.0,80,0.00,,,0.00,Meteo,2013-02-01 10:11:00,
2013-02-01 05:16:00,39.0,33.0,30.20,NNW,346,1.0,2.0,80,0.00,,,0.00,Meteo,2013-02-01 10:16:00,
2013-02-01 05:21:00,39.0,33.0,30.20,NNW,345,0.0,1.0,80,0.00,,,0.00,Meteo,2013-02-01 10:21:00,
2013-02-01 05:26:00,39.0,33.0,30.20,NNW,346,0.0,1.0,80,0.00,,,0.00,Meteo,2013-02-01 10:26:00,
2013-02-01 05:31:00,39.0,34.0,30.20,NNW,346,1.0,2.0,81,0.00,,,0.00,Meteo,2013-02-01 10:31:00,
2013-02-01 05:36:00,39.0,34.0,30.20,North,0,0.0,0.0,81,0.00,,,0.00,Meteo,2013-02-01 10:36:00,
2013-02-01 05:41:00,39.0,34.0,30.20,North,0,0.0,0.0,82,0.00,,,0.00,Meteo,2013-02-01 10:41:00,
2013-02-01 05:46:00,38.0,33.0,30.20,NNW,345,1.0,2.0,82,0.00,,,0.00,Meteo,2013-02-01 10:46:00,
2013-02-01 05:51:00,38.0,33.0,30.20,NNW,345,1.0,2.0,82,0.00,,,0.00,Meteo,2013-02-01 10:51:00,
2013-02-01 05:56:00,38.0,33.0,30.20,NNW,346,1.0,2.0,82,0.00,,,0.00,Meteo,2013-02-01 10:56:00,
2013-02-01 06:01:00,38.0,33.0,30.21,NNW,346,1.0,2.0,82,0.00,,,0.00,Meteo,2013-02-01 11:01:00,
2013-02-01 06:06:00,38.0,33.0,30.21,NNW,346,1.0,2.0,83,0.00,,,0.00,Meteo,2013-02-01 11:06:00,
2013-02-01 06:11:00,38.0,34.0,30.21,NNW,345,1.0,2.0,84,0.00,,,0.00,Meteo,2013-02-01 11:11:00,
2013-02-01 06:16:00,38.0,34.0,30.22,NNW,346,1.0,3.0,84,0.00,,,0.00,Meteo,2013-02-01 11:16:00,
2013-02-01 06:21:00,37.0,33.0,30.22,NNW,345,0.0,1.0,85,0.00,,,0.00,Meteo,2013-02-01 11:21:00,
2013-02-01 06:26:00,37.0,33.0,30.22,North,0,0.0,0.0,86,0.00,,,0.00,Meteo,2013-02-01 11:26:00,
2013-02-01 06:31:00,37.0,33.0,30.23,North,0,0.0,0.0,86,0.00,,,0.00,Meteo,2013-02-01 11:31:00,
2013-02-01 06:36:00,37.0,33.0,30.23,North,0,0.0,0.0,86,0.00,,,0.00,Meteo,2013-02-01 11:36:00,
2013-02-01 06:41:00,37.0,33.0,30.23,North,0,0.0,0.0,86,0.00,,,0.00,Meteo,2013-02-01 11:41:00,
2013-02-01 06:46:00,37.0,33.0,30.23,North,0,0.0,0.0,87,0.00,,,0.00,Meteo,2013-02-01 11:46:00,
2013-02-01 06:51:00,36.0,33.0,30.23,North,0,0.0,0.0,87,0.00,,,0.00,Meteo,2013-02-01 11:51:00,
2013-02-01 06:56:00,36.0,33.0,30.23,North,0,0.0,0.0,87,0.00,,,0.00,Meteo,2013-02-01 11:56:00,
2013-02-01 07:01:00,36.0,33.0,30.24,NNW,346,0.0,1.0,87,0.00,,,0.00,Meteo,2013-02-01 12:01:00,
2013-02-01 07:06:00,36.0,33.0,30.24,North,0,0.0,0.0,87,0.00,,,0.00,Meteo,2013-02-01 12:06:00,
2013-02-01 07:11:00,35.0,32.0,30.24,North,0,0.0,0.0,88,0.00,,,0.00,Meteo,2013-02-01 12:11:00,
2013-02-01 07:16:00,35.0,32.0,30.25,North,0,0.0,0.0,88,0.00,,,0.00,Meteo,2013-02-01 12:16:00,
2013-02-01 07:21:00,35.0,32.0,30.25,North,0,0.0,0.0,89,0.00,,,0.00,Meteo,2013-02-01 12:21:00,
2013-02-01 07:26:00,35.0,32.0,30.25,North,0,0.0,0.0,89,0.00,,,0.00,Meteo,2013-02-01 12:26:00,
2013-02-01 07:31:00,35.0,32.0,30.25,North,0,0.0,0.0,90,0.00,,,0.00,Meteo,2013-02-01 12:31:00,
2013-02-01 07:36:00,35.0,32.0,30.25,North,0,0.0,0.0,90,0.00,,,0.00,Meteo,2013-02-01 12:36:00,
2013-02-01 07:41:00,35.0,33.0,30.25,NNW,346,0.0,2.0,91,0.00,,,0.00,Meteo,2013-02-01 12:41:00,
2013-02-01 07:46:00,35.0,33.0,30.26,NNW,345,1.0,2.0,91,0.00,,,0.00,Meteo,2013-02-01 12:46:00,
2013-02-01 07:51:00,35.0,33.0,30.26,North,0,0.0,0.0,91,0.00,,,0.00,Meteo,2013-02-01 12:51:00,
2013-02-01 07:56:00,35.0,33.0,30.26,North,0,0.0,0.0,91,0.00,,,0.00,Meteo,2013-02-01 12:56:00,
2013-02-01 08:01:00,35.0,33.0,30.26,North,0,0.0,0.0,92,0.00,,,0.00,Meteo,2013-02-01 13:01:00,
2013-02-01 08:06:00,36.0,34.0,30.26,North,0,0.0,0.0,92,0.00,,,0.00,Meteo,2013-02-01 13:06:00,
2013-02-01 08:11:00,37.0,35.0,30.26,North,0,0.0,0.0,92,0.00,,,0.00,Meteo,2013-02-01 13:11:00,
2013-02-01 08:16:00,37.0,35.0,30.27,North,0,0.0,0.0,92,0.00,,,0.00,Meteo,2013-02-01 13:16:00,
2013-02-01 08:21:00,38.0,36.0,30.27,North,0,0.0,0.0,92,0.00,,,0.00,Meteo,2013-02-01 13:21:00,
2013-02-01 08:26:00,38.0,36.0,30.27,North,0,0.0,0.0,91,0.00,,,0.00,Meteo,2013-02-01 13:26:00,
2013-02-01 08:31:00,39.0,36.0,30.27,NNW,341,1.0,3.0,89,0.00,,,0.00,Meteo,2013-02-01 13:31:00,
2013-02-01 08:36:00,40.0,37.0,30.27,North,352,4.0,5.0,88,0.00,,,0.00,Meteo,2013-02-01 13:36:00,
2013-02-01 08:41:00,42.0,35.0,30.27,North,352,5.0,7.0,77,0.00,,,0.00,Meteo,2013-02-01 13:41:00,
2013-02-01 08:46:00,44.0,34.0,30.29,North,0,4.0,8.0,68,0.00,,,0.00,Meteo,2013-02-01 13:46:00,
2013-02-01 08:51:00,46.0,34.0,30.29,NNW,348,3.0,4.0,62,0.00,,,0.00,Meteo,2013-02-01 13:51:00,
2013-02-01 08:56:00,47.0,33.0,30.29,NNW,348,7.0,10.0,59,0.00,,,0.00,Meteo,2013-02-01 13:56:00,
2013-02-01 09:01:00,48.0,34.0,30.29,North,349,8.0,12.0,57,0.00,,,0.00,Meteo,2013-02-01 14:01:00,
2013-02-01 09:06:00,48.0,33.0,30.29,North,350,5.0,7.0,55,0.00,,,0.00,Meteo,2013-02-01 14:06:00,
2013-02-01 09:11:00,49.0,34.0,30.29,North,358,5.0,7.0,55,0.00,,,0.00,Meteo,2013-02-01 14:11:00,
2013-02-01 09:16:00,49.0,33.0,30.29,North,352,5.0,7.0,53,0.00,,,0.00,Meteo,2013-02-01 14:16:00,
2013-02-01 09:22:00,50.0,32.0,30.29,North,1,4.0,7.0,50,0.00,,,0.00,Meteo,2013-02-01 14:22:00,
2013-02-01 09:27:00,50.0,33.0,30.29,NNW,340,5.0,8.0,51,0.00,,,0.00,Meteo,2013-02-01 14:27:00,
2013-02-01 09:32:00,51.0,33.0,30.29,North,349,6.0,10.0,49,0.00,,,0.00,Meteo,2013-02-01 14:32:00,
2013-02-01 09:37:00,52.0,32.0,30.29,North,351,7.0,11.0,46,0.00,,,0.00,Meteo,2013-02-01 14:37:00,
2013-02-01 09:43:00,52.0,31.0,30.29,North,355,5.0,10.0,45,0.00,,,0.00,Meteo,2013-02-01 14:43:00,
2013-02-01 09:48:00,52.0,31.0,30.29,North,355,10.0,13.0,44,0.00,,,0.00,Meteo,2013-02-01 14:48:00,
2013-02-01 09:53:00,53.0,32.0,30.29,North,355,6.0,9.0,44,0.00,,,0.00,Meteo,2013-02-01 14:53:00,
2013-02-01 09:58:00,53.0,32.0,30.29,North,356,4.0,6.0,44,0.00,,,0.00,Meteo,2013-02-01 14:58:00,
2013-02-01 10:03:00,54.0,32.0,30.29,North,2,3.0,7.0,43,0.00,,,0.00,Meteo,2013-02-01 15:03:00,
2013-02-01 10:08:00,54.0,32.0,30.29,North,349,7.0,9.0,43,0.00,,,0.00,Meteo,2013-02-01 15:08:00,
2013-02-01 10:13:00,55.0,31.0,30.29,North,350,3.0,5.0,40,0.00,,,0.00,Meteo,2013-02-01 15:13:00,
2013-02-01 10:18:00,56.0,31.0,30.30,North,354,6.0,8.0,39,0.00,,,0.00,Meteo,2013-02-01 15:18:00,
2013-02-01 10:23:00,56.0,30.0,30.30,NNW,344,6.0,7.0,37,0.00,,,0.00,Meteo,2013-02-01 15:23:00,
2013-02-01 10:28:00,57.0,30.0,30.30,North,356,7.0,10.0,36,0.00,,,0.00,Meteo,2013-02-01 15:28:00,
2013-02-01 10:34:00,57.0,30.0,30.30,NNE,17,2.0,5.0,36,0.00,,,0.00,Meteo,2013-02-01 15:34:00,
2013-02-01 10:39:00,58.0,30.0,30.30,North,356,6.0,10.0,34,0.00,,,0.00,Meteo,2013-02-01 15:39:00,
2013-02-01 10:44:00,58.0,28.0,30.30,NNW,345,5.0,7.0,32,0.00,,,0.00,Meteo,2013-02-01 15:44:00,
2013-02-01 10:49:00,59.0,28.0,30.30,North,354,8.0,12.0,30,0.00,,,0.00,Meteo,2013-02-01 15:49:00,
2013-02-01 10:55:00,59.0,28.0,30.30,North,357,5.0,7.0,31,0.00,,,0.00,Meteo,2013-02-01 15:55:00,
2013-02-01 11:00:00,59.0,28.0,30.30,North,349,5.0,7.0,31,0.00,,,0.00,Meteo,2013-02-01 16:00:00,
2013-02-01 11:05:00,59.0,28.0,30.29,North,357,3.0,6.0,31,0.00,,,0.00,Meteo,2013-02-01 16:05:00,
2013-02-01 11:10:00,60.0,30.0,30.29,NNW,338,1.0,2.0,32,0.00,,,0.00,Meteo,2013-02-01 16:10:00,
2013-02-01 11:15:00,61.0,30.0,30.29,North,353,4.0,6.0,31,0.00,,,0.00,Meteo,2013-02-01 16:15:00,
2013-02-01 11:20:00,62.0,30.0,30.28,North,350,3.0,4.0,30,0.00,,,0.00,Meteo,2013-02-01 16:20:00,
2013-02-01 11:25:00,62.0,29.0,30.28,NW,307,1.0,3.0,29,0.00,,,0.00,Meteo,2013-02-01 16:25:00,
2013-02-01 11:30:00,62.0,31.0,30.29,NNW,339,3.0,6.0,31,0.00,,,0.00,Meteo,2013-02-01 16:30:00,
2013-02-01 11:35:00,62.0,29.0,30.29,WNW,295,4.0,7.0,29,0.00,,,0.00,Meteo,2013-02-01 16:35:00,
2013-02-01 11:40:00,62.0,30.0,30.29,NW,325,6.0,11.0,30,0.00,,,0.00,Meteo,2013-02-01 16:40:00,
2013-02-01 11:45:00,62.0,29.0,30.29,NNW,341,2.0,5.0,28,0.00,,,0.00,Meteo,2013-02-01 16:45:00,
2013-02-01 11:50:00,62.0,29.0,30.29,NE,43,1.0,2.0,29,0.00,,,0.00,Meteo,2013-02-01 16:50:00,
2013-02-01 11:55:00,63.0,29.0,30.29,NW,313,2.0,3.0,27,0.00,,,0.00,Meteo,2013-02-01 16:55:00,
2013-02-01 12:00:00,63.0,28.0,30.28,NW,321,5.0,7.0,26,0.00,,,0.00,Meteo,2013-02-01 17:00:00,
2013-02-01 12:05:00,63.0,28.0,30.27,NE,35,4.0,7.0,26,0.00,,,0.00,Meteo,2013-02-01 17:05:00,
2013-02-01 12:10:00,64.0,28.0,30.27,North,10,3.0,6.0,26,0.00,,,0.00,Meteo,2013-02-01 17:10:00,
2013-02-01 12:15:00,64.0,28.0,30.27,North,8,2.0,5.0,26,0.00,,,0.00,Meteo,2013-02-01 17:15:00,
2013-02-01 12:20:00,65.0,29.0,30.27,North,10,3.0,7.0,26,0.00,,,0.00,Meteo,2013-02-01 17:20:00,
2013-02-01 12:25:00,65.0,28.0,30.27,North,356,3.0,6.0,25,0.00,,,0.00,Meteo,2013-02-01 17:25:00,
2013-02-01 12:30:00,65.0,28.0,30.27,North,355,5.0,7.0,25,0.00,,,0.00,Meteo,2013-02-01 17:30:00,
2013-02-01 12:35:00,65.0,28.0,30.26,North,355,2.0,5.0,25,0.00,,,0.00,Meteo,2013-02-01 17:35:00,
2013-02-01 12:40:00,65.0,27.0,30.26,NNW,341,5.0,7.0,24,0.00,,,0.00,Meteo,2013-02-01 17:40:00,
2013-02-01 12:45:00,65.0,26.0,30.26,North,354,6.0,10.0,23,0.00,,,0.00,Meteo,2013-02-01 17:45:00,
2013-02-01 12:50:00,65.0,27.0,30.26,NNW,338,1.0,2.0,24,0.00,,,0.00,Meteo,2013-02-01 17:50:00,
2013-02-01 12:55:00,65.0,26.0,30.26,NNW,332,4.0,6.0,23,0.00,,,0.00,Meteo,2013-02-01 17:55:00,
2013-02-01 13:00:00,65.0,25.0,30.25,North,355,6.0,7.0,22,0.00,,,0.00,Meteo,2013-02-01 18:00:00,
2013-02-01 13:05:00,65.0,27.0,30.25,NNW,337,4.0,8.0,24,0.00,,,0.00,Meteo,2013-02-01 18:05:00,
2013-02-01 13:10:00,65.0,26.0,30.25,NNW,346,3.0,6.0,23,0.00,,,0.00,Meteo,2013-02-01 18:10:00,
2013-02-01 13:15:00,66.0,26.0,30.24,NNW,348,3.0,5.0,22,0.00,,,0.00,Meteo,2013-02-01 18:15:00,
2013-02-01 13:20:00,66.0,27.0,30.24,NNW,344,2.0,3.0,23,0.00,,,0.00,Meteo,2013-02-01 18:20:00,
2013-02-01 13:25:00,66.0,27.0,30.24,NW,319,5.0,8.0,23,0.00,,,0.00,Meteo,2013-02-01 18:25:00,
2013-02-01 13:30:00,66.0,26.0,30.23,NNW,337,1.0,4.0,22,0.00,,,0.00,Meteo,2013-02-01 18:30:00,
2013-02-01 13:35:00,67.0,26.0,30.23,NW,311,1.0,3.0,21,0.00,,,0.00,Meteo,2013-02-01 18:35:00,
2013-02-01 13:40:00,67.0,28.0,30.23,NW,307,4.0,7.0,23,0.00,,,0.00,Meteo,2013-02-01 18:40:00,
2013-02-01 13:45:00,68.0,25.0,30.23,NW,315,3.0,5.0,20,0.00,,,0.00,Meteo,2013-02-01 18:45:00,
2013-02-01 13:50:00,68.0,27.0,30.22,NNW,348,6.0,7.0,21,0.00,,,0.00,Meteo,2013-02-01 18:50:00,
2013-02-01 13:55:00,67.0,26.0,30.22,NW,325,3.0,6.0,21,0.00,,,0.00,Meteo,2013-02-01 18:55:00,
2013-02-01 14:00:00,67.0,23.0,30.22,North,350,5.0,6.0,19,0.00,,,0.00,Meteo,2013-02-01 19:00:00,
2013-02-01 14:05:00,67.0,25.0,30.22,NNE,33,1.0,2.0,20,0.00,,,0.00,Meteo,2013-02-01 19:05:00,
2013-02-01 14:10:00,68.0,27.0,30.22,NNW,342,4.0,7.0,21,0.00,,,0.00,Meteo,2013-02-01 19:10:00,
2013-02-01 14:15:00,68.0,24.0,30.22,North,350,6.0,11.0,19,0.00,,,0.00,Meteo,2013-02-01 19:15:00,
2013-02-01 14:20:00,68.0,23.0,30.21,North,352,6.0,8.0,18,0.00,,,0.00,Meteo,2013-02-01 19:20:00,
2013-02-01 14:25:00,67.0,21.0,30.21,NW,315,5.0,8.0,17,0.00,,,0.00,Meteo,2013-02-01 19:25:00,
2013-02-01 14:30:00,67.0,22.0,30.21,WNW,289,6.0,8.0,18,0.00,,,0.00,Meteo,2013-02-01 19:30:00,
2013-02-01 14:35:00,68.0,23.0,30.21,WSW,249,2.0,5.0,18,0.00,,,0.00,Meteo,2013-02-01 19:35:00,
2013-02-01 14:40:00,67.0,21.0,30.21,NW,318,3.0,5.0,17,0.00,,,0.00,Meteo,2013-02-01 19:40:00,
2013-02-01 14:45:00,67.0,21.0,30.21,NW,315,5.0,7.0,17,0.00,,,0.00,Meteo,2013-02-01 19:45:00,
2013-02-01 14:50:00,67.0,19.0,30.21,NNW,339,5.0,7.0,16,0.00,,,0.00,Meteo,2013-02-01 19:50:00,
2013-02-01 14:55:00,67.0,21.0,30.21,West,266,4.0,7.0,17,0.00,,,0.00,Meteo,2013-02-01 19:55:00,
2013-02-01 15:00:00,67.0,21.0,30.20,NNW,336,1.0,3.0,17,0.00,,,0.00,Meteo,2013-02-01 20:00:00,
2013-02-01 15:05:00,67.0,21.0,30.20,North,9,1.0,3.0,17,0.00,,,0.00,Meteo,2013-02-01 20:05:00,
2013-02-01 15:10:00,67.0,21.0,30.20,WNW,289,2.0,3.0,17,0.00,,,0.00,Meteo,2013-02-01 20:10:00,
2013-02-01 15:15:00,67.0,21.0,30.20,WNW,289,2.0,4.0,17,0.00,,,0.00,Meteo,2013-02-01 20:15:00,
2013-02-01 15:21:00,67.0,21.0,30.20,North,355,5.0,7.0,17,0.00,,,0.00,Meteo,2013-02-01 20:21:00,
2013-02-01 15:26:00,67.0,19.0,30.20,North,354,6.0,7.0,16,0.00,,,0.00,Meteo,2013-02-01 20:26:00,
2013-02-01 15:31:00,67.0,21.0,30.19,NNW,345,2.0,3.0,17,0.00,,,0.00,Meteo,2013-02-01 20:31:00,
2013-02-01 15:36:00,68.0,20.0,30.19,NNW,345,1.0,2.0,16,0.00,,,0.00,Meteo,2013-02-01 20:36:00,
2013-02-01 15:41:00,67.0,21.0,30.19,NW,324,1.0,2.0,17,0.00,,,0.00,Meteo,2013-02-01 20:41:00,
2013-02-01 15:46:00,68.0,20.0,30.19,NW,314,3.0,5.0,16,0.00,,,0.00,Meteo,2013-02-01 20:46:00,
2013-02-01 15:51:00,68.0,22.0,30.19,WNW,292,1.0,2.0,17,0.00,,,0.00,Meteo,2013-02-01 20:51:00,
2013-02-01 15:56:00,68.0,20.0,30.19,WNW,287,1.0,2.0,16,0.00,,,0.00,Meteo,2013-02-01 20:56:00,
2013-02-01 16:01:00,68.0,22.0,30.19,WNW,287,1.0,2.0,17,0.00,,,0.00,Meteo,2013-02-01 21:01:00,
2013-02-01 16:06:00,68.0,22.0,30.19,North,352,1.0,2.0,17,0.00,,,0.00,Meteo,2013-02-01 21:06:00,
2013-02-01 16:11:00,67.0,21.0,30.19,West,274,6.0,11.0,17,0.00,,,0.00,Meteo,2013-02-01 21:11:00,
2013-02-01 16:16:00,68.0,23.0,30.19,NNW,334,0.0,3.0,18,0.00,,,0.00,Meteo,2013-02-01 21:16:00,
2013-02-01 16:21:00,68.0,22.0,30.19,West,279,2.0,5.0,17,0.00,,,0.00,Meteo,2013-02-01 21:21:00,
2013-02-01 16:26:00,68.0,22.0,30.19,NNW,346,4.0,6.0,17,0.00,,,0.00,Meteo,2013-02-01 21:26:00,
2013-02-01 16:31:00,67.0,22.0,30.19,North,357,3.0,5.0,18,0.00,,,0.00,Meteo,2013-02-01 21:31:00,
2013-02-01 16:36:00,67.0,21.0,30.19,North,360,3.0,6.0,17,0.00,,,0.00,Meteo,2013-02-01 21:36:00,
2013-02-01 16:41:00,67.0,22.0,30.19,NNW,345,2.0,3.0,18,0.00,,,0.00,Meteo,2013-02-01 21:41:00,
2013-02-01 16:46:00,68.0,23.0,30.19,West,271,1.0,2.0,18,0.00,,,0.00,Meteo,2013-02-01 21:46:00,
2013-02-01 16:51:00,68.0,22.0,30.19,NW,316,1.0,3.0,17,0.00,,,0.00,Meteo,2013-02-01 21:51:00,
2013-02-01 16:56:00,67.0,23.0,30.19,NW,316,2.0,3.0,19,0.00,,,0.00,Meteo,2013-02-01 21:56:00,
2013-02-01 17:01:00,67.0,23.0,30.19,WNW,282,5.0,7.0,19,0.00,,,0.00,Meteo,2013-02-01 22:01:00,
2013-02-01 17:06:00,67.0,25.0,30.19,West,271,3.0,8.0,20,0.00,,,0.00,Meteo,2013-02-01 22:06:00,
2013-02-01 17:11:00,67.0,25.0,30.19,West,270,3.0,6.0,20,0.00,,,0.00,Meteo,2013-02-01 22:11:00,
2013-02-01 17:16:00,67.0,25.0,30.19,WNW,298,2.0,3.0,20,0.00,,,0.00,Meteo,2013-02-01 22:16:00,
2013-02-01 17:21:00,67.0,25.0,30.19,WNW,285,3.0,5.0,20,0.00,,,0.00,Meteo,2013-02-01 22:21:00,
2013-02-01 17:26:00,66.0,25.0,30.19,WNW,288,1.0,3.0,21,0.00,,,0.00,Meteo,2013-02-01 22:26:00,
2013-02-01 17:31:00,66.0,24.0,30.19,WSW,256,2.0,6.0,20,0.00,,,0.00,Meteo,2013-02-01 22:31:00,
2013-02-01 17:36:00,66.0,25.0,30.19,West,275,2.0,3.0,21,0.00,,,0.00,Meteo,2013-02-01 22:36:00,
2013-02-01 17:41:00,66.0,25.0,30.19,West,279,1.0,2.0,21,0.00,,,0.00,Meteo,2013-02-01 22:41:00,
2013-02-01 17:46:00,66.0,28.0,30.19,North,0,0.0,0.0,24,0.00,,,0.00,Meteo,2013-02-01 22:46:00,
2013-02-01 17:51:00,65.0,27.0,30.19,West,280,1.0,3.0,24,0.00,,,0.00,Meteo,2013-02-01 22:51:00,
2013-02-01 17:57:00,65.0,28.0,30.19,West,279,1.0,2.0,25,0.00,,,0.00,Meteo,2013-02-01 22:57:00,
2013-02-01 18:02:00,64.0,28.0,30.19,West,275,2.0,2.0,25,0.00,,,0.00,Meteo,2013-02-01 23:02:00,
2013-02-01 18:07:00,63.0,27.0,30.19,NW,305,0.0,2.0,25,0.00,,,0.00,Meteo,2013-02-01 23:07:00,
2013-02-01 18:12:00,63.0,28.0,30.19,WNW,303,2.0,3.0,26,0.00,,,0.00,Meteo,2013-02-01 23:12:00,
2013-02-01 18:17:00,63.0,28.0,30.20,WNW,303,1.0,2.0,26,0.00,,,0.00,Meteo,2013-02-01 23:17:00,
2013-02-01 18:22:00,62.0,29.0,30.20,NW,304,1.0,2.0,28,0.00,,,0.00,Meteo,2013-02-01 23:22:00,
2013-02-01 18:27:00,62.0,31.0,30.20,NW,304,0.0,1.0,31,0.00,,,0.00,Meteo,2013-02-01 23:27:00,
2013-02-01 18:32:00,61.0,29.0,30.20,NW,304,0.0,1.0,29,0.00,,,0.00,Meteo,2013-02-01 23:32:00,
2013-02-01 18:37:00,60.0,31.0,30.20,North,0,0.0,0.0,33,0.00,,,0.00,Meteo,2013-02-01 23:37:00,
2013-02-01 18:42:00,59.0,33.0,30.20,North,0,0.0,0.0,38,0.00,,,0.00,Meteo,2013-02-01 23:42:00,
2013-02-01 18:48:00,58.0,31.0,30.20,North,0,0.0,0.0,36,0.00,,,0.00,Meteo,2013-02-01 23:48:00,
2013-02-01 18:53:00,57.0,30.0,30.20,North,0,0.0,0.0,36,0.00,,,0.00,Meteo,2013-02-01 23:53:00,
2013-02-01 18:58:00,57.0,32.0,30.20,North,0,0.0,0.0,38,0.00,,,0.00,Meteo,2013-02-01 23:58:00,
2013-02-01 19:03:00,56.0,31.0,30.20,North,0,0.0,0.0,39,0.00,,,0.00,Meteo,2013-02-02 00:03:00,
2013-02-01 19:08:00,56.0,33.0,30.20,North,0,0.0,0.0,42,0.00,,,0.00,Meteo,2013-02-02 00:08:00,
2013-02-01 19:13:00,55.0,34.0,30.20,North,0,0.0,0.0,44,0.00,,,0.00,Meteo,2013-02-02 00:13:00,
2013-02-01 19:19:00,55.0,35.0,30.20,North,0,0.0,0.0,46,0.00,,,0.00,Meteo,2013-02-02 00:19:00,
2013-02-01 19:24:00,54.0,35.0,30.20,North,0,0.0,0.0,49,0.00,,,0.00,Meteo,2013-02-02 00:24:00,
2013-02-01 19:29:00,54.0,36.0,30.20,North,0,0.0,0.0,51,0.00,,,0.00,Meteo,2013-02-02 00:29:00,
2013-02-01 19:34:00,53.0,35.0,30.20,North,0,0.0,0.0,50,0.00,,,0.00,Meteo,2013-02-02 00:34:00,
2013-02-01 19:39:00,53.0,36.0,30.20,North,0,0.0,0.0,53,0.00,,,0.00,Meteo,2013-02-02 00:39:00,
2013-02-01 19:44:00,53.0,38.0,30.20,North,0,0.0,0.0,56,0.00,,,0.00,Meteo,2013-02-02 00:44:00,
2013-02-01 19:49:00,52.0,36.0,30.20,North,0,0.0,0.0,54,0.00,,,0.00,Meteo,2013-02-02 00:49:00,
2013-02-01 19:54:00,51.0,34.0,30.20,North,0,0.0,0.0,51,0.00,,,0.00,Meteo,2013-02-02 00:54:00,
2013-02-01 19:59:00,51.0,34.0,30.20,North,0,0.0,0.0,52,0.00,,,0.00,Meteo,2013-02-02 00:59:00,
2013-02-01 20:04:00,51.0,35.0,30.20,North,0,0.0,0.0,55,0.00,,,0.00,Meteo,2013-02-02 01:04:00,
2013-02-01 20:09:00,50.0,36.0,30.20,North,0,0.0,0.0,58,0.00,,,0.00,Meteo,2013-02-02 01:09:00,
2013-02-01 20:14:00,50.0,35.0,30.20,North,0,0.0,0.0,56,0.00,,,0.00,Meteo,2013-02-02 01:14:00,
2013-02-01 20:20:00,49.0,34.0,30.21,North,0,0.0,0.0,56,0.00,,,0.00,Meteo,2013-02-02 01:20:00,
2013-02-01 20:25:00,49.0,34.0,30.21,North,0,0.0,0.0,57,0.00,,,0.00,Meteo,2013-02-02 01:25:00,
2013-02-01 20:30:00,49.0,35.0,30.21,North,0,0.0,0.0,59,0.00,,,0.00,Meteo,2013-02-02 01:30:00,
2013-02-01 20:35:00,49.0,37.0,30.21,North,0,0.0,0.0,63,0.00,,,0.00,Meteo,2013-02-02 01:35:00,
2013-02-01 20:40:00,48.0,37.0,30.21,North,0,0.0,0.0,66,0.00,,,0.00,Meteo,2013-02-02 01:40:00,
2013-02-01 20:45:00,48.0,38.0,30.21,North,0,0.0,0.0,67,0.00,,,0.00,Meteo,2013-02-02 01:45:00,
2013-02-01 20:50:00,47.0,37.0,30.22,North,0,0.0,0.0,69,0.00,,,0.00,Meteo,2013-02-02 01:50:00,
2013-02-01 20:55:00,47.0,36.0,30.22,North,0,0.0,0.0,66,0.00,,,0.00,Meteo,2013-02-02 01:55:00,
2013-02-01 21:00:00,47.0,37.0,30.22,North,0,0.0,0.0,67,0.00,,,0.00,Meteo,2013-02-02 02:00:00,
2013-02-01 21:05:00,46.0,36.0,30.21,North,0,0.0,0.0,69,0.00,,,0.00,Meteo,2013-02-02 02:05:00,
2013-02-01 21:10:00,46.0,37.0,30.21,North,0,0.0,0.0,70,0.00,,,0.00,Meteo,2013-02-02 02:10:00,
2013-02-01 21:15:00,46.0,37.0,30.22,North,0,0.0,0.0,71,0.00,,,0.00,Meteo,2013-02-02 02:15:00,
2013-02-01 21:20:00,46.0,37.0,30.22,North,0,0.0,0.0,71,0.00,,,0.00,Meteo,2013-02-02 02:20:00,
2013-02-01 21:25:00,45.0,37.0,30.22,North,0,0.0,0.0,74,0.00,,,0.00,Meteo,2013-02-02 02:25:00,
2013-02-01 21:30:00,45.0,37.0,30.22,North,0,0.0,0.0,74,0.00,,,0.00,Meteo,2013-02-02 02:30:00,
2013-02-01 21:36:00,45.0,37.0,30.22,North,0,0.0,0.0,74,0.00,,,0.00,Meteo,2013-02-02 02:36:00,
2013-02-01 21:41:00,45.0,38.0,30.22,North,0,0.0,0.0,75,0.00,,,0.00,Meteo,2013-02-02 02:41:00,
2013-02-01 21:46:00,45.0,37.0,30.23,WNW,303,2.0,2.0,74,0.00,,,0.00,Meteo,2013-02-02 02:46:00,
2013-02-01 21:51:00,45.0,37.0,30.23,NW,304,1.0,2.0,74,0.00,,,0.00,Meteo,2013-02-02 02:51:00,
2013-02-01 21:56:00,45.0,38.0,30.23,NW,304,1.0,2.0,75,0.00,,,0.00,Meteo,2013-02-02 02:56:00,
2013-02-01 22:01:00,45.0,38.0,30.23,NW,304,1.0,2.0,76,0.00,,,0.00,Meteo,2013-02-02 03:01:00,
2013-02-01 22:06:00,44.0,37.0,30.23,NW,304,0.0,2.0,77,0.00,,,0.00,Meteo,2013-02-02 03:06:00,
2013-02-01 22:11:00,44.0,37.0,30.23,NW,305,0.0,1.0,77,0.00,,,0.00,Meteo,2013-02-02 03:11:00,
2013-02-01 22:16:00,44.0,38.0,30.23,NW,304,1.0,3.0,79,0.00,,,0.00,Meteo,2013-02-02 03:16:00,
2013-02-01 22:21:00,44.0,38.0,30.23,North,0,0.0,0.0,79,0.00,,,0.00,Meteo,2013-02-02 03:21:00,
2013-02-01 22:26:00,44.0,38.0,30.23,North,0,0.0,0.0,79,0.00,,,0.00,Meteo,2013-02-02 03:26:00,
2013-02-01 22:31:00,44.0,38.0,30.24,North,0,0.0,0.0,79,0.00,,,0.00,Meteo,2013-02-02 03:31:00,
2013-02-01 22:36:00,44.0,38.0,30.24,North,0,0.0,0.0,80,0.00,,,0.00,Meteo,2013-02-02 03:36:00,
2013-02-01 22:41:00,44.0,38.0,30.24,North,0,0.0,0.0,80,0.00,,,0.00,Meteo,2013-02-02 03:41:00,
2013-02-01 22:46:00,44.0,38.0,30.24,North,0,0.0,0.0,80,0.00,,,0.00,Meteo,2013-02-02 03:46:00,
2013-02-01 22:51:00,44.0,38.0,30.24,North,0,0.0,0.0,80,0.00,,,0.00,Meteo,2013-02-02 03:51:00,
2013-02-01 22:56:00,44.0,38.0,30.24,North,0,0.0,0.0,79,0.00,,,0.00,Meteo,2013-02-02 03:56:00,
2013-02-01 23:01:00,43.0,37.0,30.24,North,0,0.0,0.0,80,0.00,,,0.00,Meteo,2013-02-02 04:01:00,
2013-02-01 23:06:00,43.0,38.0,30.24,NW,304,2.0,2.0,82,0.00,,,0.00,Meteo,2013-02-02 04:06:00,
2013-02-01 23:11:00,43.0,38.0,30.24,North,0,0.0,0.0,83,0.00,,,0.00,Meteo,2013-02-02 04:11:00,
2013-02-01 23:16:00,43.0,38.0,30.24,NW,305,0.0,1.0,83,0.00,,,0.00,Meteo,2013-02-02 04:16:00,
2013-02-01 23:21:00,43.0,38.0,30.23,North,0,0.0,0.0,83,0.00,,,0.00,Meteo,2013-02-02 04:21:00,
2013-02-01 23:26:00,43.0,38.0,30.23,North,0,0.0,0.0,83,0.00,,,0.00,Meteo,2013-02-02 04:26:00,
2013-02-01 23:31:00,43.0,39.0,30.24,North,0,0.0,0.0,84,0.00,,,0.00,Meteo,2013-02-02 04:31:00,
2013-02-01 23:36:00,43.0,39.0,30.24,North,0,0.0,0.0,84,0.00,,,0.00,Meteo,2013-02-02 04:36:00,
2013-02-01 23:41:00,42.0,38.0,30.24,North,0,0.0,0.0,84,0.00,,,0.00,Meteo,2013-02-02 04:41:00,
2013-02-01 23:46:00,42.0,38.0,30.23,North,0,0.0,0.0,84,0.00,,,0.00,Meteo,2013-02-02 04:46:00,
2013-02-01 23:51:00,42.0,38.0,30.23,North,0,0.0,0.0,84,0.00,,,0.00,Meteo,2013-02-02 04:51:00,
2013-02-01 23:56:00,42.0,38.0,30.23,North,0,0.0,0.0,84,0.00,,,0.00,Meteo,2013-02-02 04:56:00,